Regional Weather Roundup
Issued by NWS

Home | Current Version | Previous Version | Graphics & Text | Print | Product List | Glossary On
Versions: 1 2 3 4 5 6 7 8 9 10 11 12 13 14 15 16 17 18 19 20 21 22 23 24 25 26 27 28 29 30 31 32 33 34 35 36 37 38 39 40 41 42 43 44 45 46 47 48 49 50
845
ASUS45 KBOU 241407
RWRCO

WEATHER ROUNDUP FOR COLORADO
NATIONAL WEATHER SERVICE DENVER/BOULDER CO
800 AM MDT SUN JUL 24 2016

NOTE: "FAIR" INDICATES FEW OR NO CLOUDS BELOW 12000 FEET WITH NO
SIGNIFICANT WEATHER AND/OR OBSTRUCTIONS TO VISIBILITY.

COZ001>005-013-030-031-241500-
...NORTHWEST COLORADO...

CITY           SKY/WX    TMP DP  RH WIND       PRES   REMARKS
CRAIG          FAIR      61  45  55 W5        30.26R
HAYDEN         FAIR      64  39  39 E10       30.28R
MEEKER         FAIR      63  45  51 E5        30.25S
MOUNT WERNER   NOT AVBL
STEAMBOAT SPGS FAIR      59  42  52 CALM      30.31S
WALDEN         FAIR      57  41  54 S5        30.41R
$$

COZ006>008-011-241500-
...WEST CENTRAL VALLEYS...

CITY           SKY/WX    TMP DP  RH WIND       PRES   REMARKS
GRAND JUNCTION FAIR      78  44  29 E15       30.13R
MONTROSE       FAIR      71  44  37 SE10      30.24S
EAGLE          SUNNY     66  41  39 SW10      30.33R
RIFLE          FAIR      71  46  40 E6        30.21R
DELTA          FAIR      76  44  31 NE9       30.19S
NUCLA          FAIR      72  41  33 S3        30.25R
$$

COZ017>023-064>068-241500-
...SOUTHWEST COLORADO...

CITY           SKY/WX    TMP DP  RH WIND       PRES   REMARKS
DURANGO        FAIR      65  45  48 CALM      30.28R
CORTEZ         FAIR      72  44  36 W3        30.20R
PAGOSA SPRINGS FAIR      63  44  48 NE3       30.38R
TELLURIDE      CLOUDY    58  41  53 E9        30.51S
WOLF CREEK PAS FAIR      54  37  54 CALM      30.72R
$$

COZ009-010-012-014-032>034-037-058>063-241500-
...CENTRAL COLORADO...

CITY           SKY/WX    TMP DP  RH WIND       PRES   REMARKS
ASPEN          FAIR      60  46  59 SE9G18    30.40F
BUENA VISTA    PTSUNNY   62  41  46 NW17G24   30.44R
COPPER MTN     CLOUDY    54  36  50 SW15      30.74R
BERTHOUD PASS  FAIR      46  32  57 W8G21     30.74R
COTTONWOOD PAS CLOUDY    59  41  51 CALM      30.56R
GUNNISON       FAIR      55  39  54 CALM      30.46R
KREMMLING      FAIR      55  45  67 CALM      30.39S
LEADVILLE      FAIR      48  42  80 NE7       30.57F
MONARCH PASS   FAIR      50  37  62 MISG      30.81R
SALIDA         FAIR      62  46  54 N5        30.47R
SUNLIGHT       FAIR      55  37  50 SE3       30.62S
WILKERSON PASS FAIR      55  34  44 N5        30.68R
$$

COZ069>075-241500-
...SAN LUIS VALLEY/SANGRE DE CRISTO MOUNTAINS...

CITY           SKY/WX    TMP DP  RH WIND       PRES   REMARKS
ALAMOSA        FAIR      62  49  62 NE5       30.36R
LA VETA PASS   FAIR      59  41  51 CALM      30.56R
SAGUACHE       FAIR      63  41  45 NW18      30.41R
$$

COZ035-036-038>040-241500-
...NORTHERN COLORADO FRONT RANGE...

CITY           SKY/WX    TMP DP  RH WIND       PRES   REMARKS
DENVER INTL AP PTSUNNY   72  52  49 NW7       30.17R
DMNS CITY PARK   N/A     72  50  46 N2        30.18R
AURORA         PTSUNNY   70  50  48 S13       30.18F
FRONT RANGE AP PTSUNNY   72  54  53 SE9       30.17F
ERIE MUNI ARPT FAIR      70  52  51 CALM      30.16R
BOULDER MUN AP FAIR      70  52  52 SE3       30.16R
CENTENNIAL     FAIR      73  44  35 SE7       30.21R
BROOMFIELD     PTSUNNY   70  48  46 CALM      30.19R
LONGMONT       FAIR      72  54  53 CALM      30.17R
$$

COZ041-046-047-076>085-087-088-241500-
...PIKES PEAK/PALMER DIVIDE AND SOUTHERN FOOTHILLS...

CITY           SKY/WX    TMP DP  RH WIND       PRES   REMARKS
COLO. SPRINGS  PTSUNNY   73  53  49 VRB3      30.26S
A. F. ACADEMY  FAIR      69  49  49 NE2       30.27S
SCHRIEVER AFB  NOT AVBL
ELLICOTT       FAIR     N/A N/A N/A CALM      30.25R
FALCON         NOT AVBL
FORT CARSON    FAIR      73  51  46 W1        30.23R
LIMON          FAIR      71  54  54 VRB3      30.21R
MONUMENT HILL  FAIR      68  50  52 S5        30.32S
TRINIDAD       NOT AVBL
$$

COZ042>045-048>051-090-091-241500-
...NORTHEAST COLORADO...

CITY           SKY/WX    TMP DP  RH WIND       PRES   REMARKS
GREELEY ARPT   FAIR      66  55  68 NW8       30.16R
AKRON          FAIR      73  57  57 NE9       30.18R
BURLINGTON     FAIR      75  63  66 NE7       30.13R
WRAY           FAIR      77  55  47 N6        30.14R
STERLING       PTSUNNY   66  61  82 NE6       30.14R
HOLYOKE        FAIR     N/A N/A N/A W3        30.14S
FORT MORGAN    FAIR      72  54  53 E9        30.15F
$$

COZ086-089-092>099-241500-
...SOUTHEAST COLORADO...

CITY           SKY/WX    TMP DP  RH WIND       PRES   REMARKS
PUEBLO         FAIR      77  53  43 N3        30.17R
LA JUNTA       FAIR      74  61  63 CALM      30.13R
LAMAR          FAIR      72  67  84 CALM      30.08R
SPRINGFIELD      N/A     73  58  59 NW10      30.11S
$$




USA.gov is the U.S. government's official web portal to all federal, state and local government web resources and services.